ISS DEB (52432 NORAD) Tracking and Keplerian Element Data

This shows tracking and keplerian element data for the satellite.

Feedback or suggestion? Click here.




ElementValue
Catalog52432
NameISS DEB
Epoch Orbit231
Epoch Day138.19734817
Epoch Year2022
RAAN124.3193
Inclination51.6418
Eccentricity0.0010297
Argument of Perigee136.5693
Mean Anonmoly229.2674
Mean Motion15.61872765
Decay Rate0.00561148
L11 52432U 98067TN 22138.19734817 .00561148 00000+0 59048-2 0 9994
L22 52432 51.6418 124.3193 0010297 136.5693 229.2674 15.61872765 2314



Live tracking and technical data element details for ISS DEB (NORAD 52432). ISS DEB can be tracked NOW for your location showing map with azimuth and elevation plus other details from your city location.







IsCatalogInMostPopularTable: catalog: 52432, numindb: 294
Update: records affected: 1



GetName: 52432 ISS DEB

Hit Count: updated at: Fri, 06 Dec 2024 11:00:07 GMT